Regional Weather Roundup
Issued by NWS

Home | Current Version | Previous Version | Graphics & Text | Print | Product List | Glossary On
Versions: 1 2 3 4 5 6 7 8 9 10 11 12 13 14 15 16 17 18 19 20 21 22 23 24 25 26 27 28 29 30 31 32 33 34 35 36 37 38 39 40 41 42 43 44 45 46 47 48 49 50
000
ASUS45 KCYS 290510
RWRWY

WYOMING REGIONAL WEATHER ROUNDUP
NATIONAL WEATHER SERVICE CHEYENNE WY
1100 PM MDT THU APR 28 2016

NOTE:  "FAIR" INDICATES FEW OR NO CLOUDS BELOW 12,000 FEET
WITH NO SIGNIFICANT WEATHER AND/OR OBSTRUCTIONS TO VISIBILITY.

WYZ001-290600-
YELLOWSTONE NATIONAL PARK

CITY           SKY/WX    TMP DP  RH WIND       PRES   REMARKS
LK YELLOWSTONE   N/A     30  22  72 CALM      29.97R
W YELLOWSTONE  NOT AVBL

$$
WYZ002>013-054>058-071-098>099-290600-
NORTHERN WYOMING

CITY           SKY/WX    TMP DP  RH WIND       PRES   REMARKS
JACKSON        CLOUDY    36  32  87 N3        29.93R
CODY           CLOUDY    34  28  80 NE3       30.04F
GREYBULL       CLOUDY    43  30  60 CALM      30.04F
WORLAND        CLOUDY    41  32  70 SE9       30.04F
SHERIDAN       CLOUDY    37  33  85 CALM      30.08F
BUFFALO          N/A    N/A N/A N/A MISG      30.08F
GILLETTE       CLOUDY    35  33  92 CALM      30.09F
HULETT         CLOUDY    36  32  87 E5        30.11F WCI  32
NEWCASTLE      CLOUDY    36  34  93 S6        30.11F WCI  31

$$
WYZ014>020-022>026-101>103-290600-
CENTRAL WYOMING

CITY           SKY/WX    TMP DP  RH WIND       PRES   REMARKS
BIG PINEY      CLOUDY    33  25  72 SW12      29.97S WCI  24
PINEDALE       CLOUDY    32  27  80 W7        29.97S WCI  26
DUBOIS         FLURRIES  27  27 100 SE13      30.00S WCI  16
LANDER         CLOUDY    34  27  75 CALM      30.04S
RIVERTON       CLOUDY    35  27  72 E8        30.04F WCI  29
CASPER         CLOUDY    31  28  89 E8        30.07R WCI  23
DOUGLAS        MOCLDY    32  31  96 S5        30.10R WCI  27

$$
WYZ021-027>030-104>119-290600-
SOUTHERN WYOMING

CITY           SKY/WX    TMP DP  RH WIND       PRES   REMARKS
EVANSTON       FLURRIES  32  28  85 NE13      29.92S WCI  22
FORT BRIDGER   FLURRIES  32  32 100 E14       29.96F WCI  22
ROCK SPRINGS   CLOUDY    32  26  78 NE18      29.98R WCI  20
DIXON          FAIR      36  33  87 N5        29.95R WCI  32
RAWLINS        CLOUDY    31  27  85 NE15      29.97S WCI  20
SARATOGA       FAIR      32  32 100 CALM      29.94F
LARAMIE        CLOUDY    29  27  92 SE13      29.97F WCI  19
CHEYENNE       CLOUDY    33  31  92 S9        30.03S WCI  25
TORRINGTON     FAIR      34  33  96 E5        30.08F WCI  30
PINE BLUFFS    CLOUDY    34  32  93 NE5       30.05F WCI  30

$$



USA.gov is the U.S. government's official web portal to all federal, state and local government web resources and services.